File timestamp: Wed Aug 17 03:00:00 2016, Internal temp: 19.378662109375
1471402800.99, -0.00265272567048669, 0.0510324090719223, 0.0291772931814194, 32803, 33317, 23434, 19.1921482086182
1471402802, 0.00173066719435155, 0.0514926351606846, 0.0294426921755075, 32797, 33313, 23428, NaN
1471402803, 0.00498750945553184, 0.0512254387140274, 0.0292746666818857, 32811, 33306, 23438, NaN
1471402804, 0.0084656123071909, 0.050850797444582, 0.0291008297353983, 32805, 33305, 23435, NaN
1471402805, 0.0126466220244765, 0.0506114698946476, 0.0293667558580637, 32801, 33316, 23440, NaN
1471402805, 0.0162662081420422, 0.0512885861098766, 0.0293455887585878, 32788, 33325, 23456, NaN
1471402806.004, 0.0195934474468231, 0.0521338433027267, 0.0295741483569145, 32803, 33320, 23439, NaN
1471402807.004, 0.0229485630989075, 0.0529082901775837, 0.0293812789022923, 32792, 33316, 23430, NaN
1471402808.004, 0.026512311771512, 0.0533185638487339, 0.0294841453433037, 32793, 33324, 23453, NaN
1471402809.004, 0.0294714216142893, 0.05360446870327, 0.0297320615500212, 32801, 33306, 23434, NaN
1471402809.004, 0.0315978452563286, 0.0534523837268353, 0.0298089385032654, 32811, 33311, 23422, NaN
1471402810.006, 0.0327914170920849, 0.0520638972520828, 0.0294248275458813, 32794, 33315, 23433, NaN
1471402811.006, 0.034523781388998, 0.0518074445426464, 0.0294360015541315, 32801, 33313, 23436, NaN
1471402812.006, 0.0364830270409584, 0.0517860762774944, 0.0290165543556213, 32802, 33309, 23425, NaN
1471402813.006, 0.0377426296472549, 0.0517052970826626, 0.0294469483196735, 32795, 33309, 23450, NaN
1471402813.006, 0.0360481254756451, 0.0527646131813526, 0.0291042402386665, 32790, 33316, 23442, NaN
1471402814.008, 0.0325854457914829, 0.0517704710364342, 0.0299667660146952, 32798, 33313, 23429, NaN
1471402815.008, 0.0286408495157957, 0.0513598285615444, 0.0302310213446617, 32814, 33331, 23415, NaN
1471402816.008, 0.0228900648653507, 0.0513327158987522, 0.0297246351838112, 32793, 33308, 23441, NaN
1471402817.008, 0.0154298981651664, 0.051167719066143, 0.0291965696960688, 32797, 33310, 23430, NaN
1471402818.016, 0.00798177998512983, 0.0507742874324322, 0.0298295821994543, 32799, 33327, 23440, NaN
1471402819.016, 0.000790559453889728, 0.0507944189012051, 0.029694776982069, 32811, 33313, 23421, NaN
1471402820.016, -0.00539219053462148, 0.0509237833321095, 0.0292725525796413, 32802, 33312, 23438, NaN
1471402821.016, -0.0105705261230469, 0.0507758036255836, 0.0291313771158457, 32798, 33321, 23430, NaN
1471402822.016, -0.0140380524098873, 0.0509223565459251, 0.0293906442821026, 32801, 33309, 23428, NaN
1471402823.016, -0.0163030102849007, 0.0509440861642361, 0.0288078747689724, 32802, 33305, 23427, NaN
1471402824.016, -0.0169807560741901, 0.0517370402812958, 0.0287807490676641, 32807, 33320, 23436, NaN
1471402825.016, -0.0171626657247543, 0.0518211871385574, 0.0289080459624529, 32797, 33314, 23443, NaN
1471402826.016, -0.0180081613361835, 0.0521761998534203, 0.0291137360036373, 32785, 33308, 23436, NaN
1471402827.016, -0.0183366145938635, 0.0523339435458183, 0.0294137913733721, 32812, 33313, 23434, NaN
1471402828.016, -0.0177311711013317, 0.0525549575686455, 0.0293702315539122, 32806, 33318, 23429, NaN
1471402829.016, -0.0166946556419134, 0.0528701730072498, 0.0289444793015718, 32791, 33303, 23436, NaN
1471402830.016, -0.0146297086030245, 0.0526063144207001, 0.028522040694952, 32801, 33308, 23435, NaN
1471402831.016, -0.0125795500352979, 0.0524876862764359, 0.0291349403560162, 32806, 33299, 23446, NaN
1471402832.016, -0.0117787271738052, 0.0520169176161289, 0.0294596645981073, 32791, 33311, 23444, NaN
1471402833.016, -0.0106860334053636, 0.0517734698951244, 0.0294348485767841, 32800, 33298, 23434, NaN
1471402834.016, -0.00820312183350325, 0.051344983279705, 0.030098145827651, 32801, 33307, 23437, NaN
1471402835.016, -0.00199633045122027, 0.0510693266987801, 0.0300870630890131, 32790, 33318, 23437, NaN
1471402836.016, 0.0115929450839758, 0.0510458871722221, 0.0299277007579803, 32806, 33322, 23423, NaN
1471402837.016, 0.0334052592515945, 0.0512099899351597, 0.029455179348588, 32805, 33309, 23433, NaN
1471402838.016, 0.0624386519193649, 0.051002025604248, 0.0293257497251034, 32801, 33302, 23427, NaN
1471402839.016, 0.0978004708886147, 0.0510403737425804, 0.0293162278831005, 32807, 33314, 23430, NaN
1471402840.016, 0.137110531330109, 0.0516704805195332, 0.0292301587760448, 32797, 33299, 23441, NaN
1471402841.016, 0.177773714065552, 0.0517774969339371, 0.0299359392374754, 32789, 33319, 23444, NaN
1471402842.016, 0.218192413449287, 0.0518814250826836, 0.0301511604338884, 32796, 33301, 23434, NaN
1471402843.016, 0.185657799243927, 0.0510843023657799, 0.0308528058230877, 32811, 33315, 23421, NaN
1471402844.016, 0.114165581762791, 0.0515997633337975, 0.0315064191818237, 32800, 33305, 23446, NaN
1471402845.016, 0.0537000931799412, 0.0509254112839699, 0.0309627596288919, 32807, 33314, 23437, NaN
1471402846.016, 0.00335033121518791, 0.0505552962422371, 0.0310912672430277, 32817, 33311, 23430, NaN
1471402847.016, -0.0377774238586426, 0.0503948256373405, 0.0320703238248825, 32801, 33312, 23437, NaN
1471402848.024, -0.0705554261803627, 0.0503255054354668, 0.0319902822375298, 32800, 33331, 23425, NaN
1471402849.024, -0.0958302989602089, 0.050248246639967, 0.0318316444754601, 32803, 33322, 23427, NaN
1471402850.024, -0.114418968558311, 0.0492956787347794, 0.0319756455719471, 32810, 33324, 23431, NaN
1471402851.024, -0.127104908227921, 0.0483120828866959, 0.0319548919796944, 32802, 33312, 23444, NaN
1471402851.024, -0.134634763002396, 0.0479990616440773, 0.0315591618418694, 32792, 33326, 23443, NaN
1471402852.032, -0.137715339660645, 0.0469631180167198, 0.0310507286339998, 32816, 33309, 23425, NaN
1471402853.032, -0.137011155486107, 0.0471450239419937, 0.031052416190505, 32806, 33318, 23442, NaN
1471402854.032, -0.133142590522766, 0.0469061248004436, 0.0308270715177059, 32811, 33305, 23446, NaN
1471402855.032, -0.126684337854385, 0.0470476150512695, 0.0305119547992945, 32800, 33306, 23442, NaN
1471402855.032, -0.118164695799351, 0.0468686074018478, 0.0315459817647934, 32801, 33308, 23431, NaN
1471402856.038, -0.108065113425255, 0.0476640835404396, 0.0311781316995621, 32793, 33326, 23446, 16.9206047058105
1471402857.038, -0.0968204289674759, 0.0483531542122364, 0.0305184498429298, 32793, 33306, 23440, NaN
1471402858.038, -0.0848194509744644, 0.0480123087763786, 0.0299708284437656, 32805, 33318, 23440, NaN
1471402859.038, -0.0724060162901878, 0.0481023639440536, 0.0306247435510159, 32795, 33309, 23458, NaN
1471402859.038, -0.0598804205656052, 0.0483475774526596, 0.0310342572629452, 32803, 33319, 23428, NaN
1471402860.042, -0.047501165419817, 0.0483307465910912, 0.0311658065766096, 32790, 33319, 23439, NaN
1471402861.042, -0.035487025976181, 0.0480352155864239, 0.0310091003775597, 32794, 33313, 23446, NaN
1471402862.042, -0.0240193158388138, 0.0482107810676098, 0.0308865401893854, 32795, 33310, 23441, NaN
1471402863.042, -0.0132443597540259, 0.0482019893825054, 0.0310051422566175, 32796, 33310, 23442, NaN
1471402863.042, -0.00327611248940229, 0.0478753410279751, 0.0311355721205473, 32802, 33308, 23432, NaN
1471402864.044, 0.0058011463843286, 0.0476354509592056, 0.0309683009982109, 32791, 33313, 23431, NaN
1471402865.044, 0.013930051587522, 0.0475584492087364, 0.0310962852090597, 32810, 33301, 23455, NaN
1471402866.044, 0.0210773777216673, 0.0471270978450775, 0.0318889170885086, 32794, 33306, 23448, NaN
1471402867.044, 0.0272312946617603, 0.0467422567307949, 0.0314601771533489, 32790, 33308, 23440, NaN
1471402868.044, 0.0323986671864986, 0.0464832186698914, 0.0307860374450684, 32784, 33308, 23451, NaN
1471402869.044, 0.0362198948860168, 0.0467292964458466, 0.0305374320596457, 32811, 33306, 23428, NaN
1471402870.044, 0.0356047973036766, 0.0469008609652519, 0.03093146905303, 32806, 33303, 23442, NaN
1471402871.044, 0.0315511263906956, 0.0473246648907661, 0.0309705603867769, 32800, 33309, 23436, NaN
1471402872.052, 0.0252848491072655, 0.0475292503833771, 0.0308993253856897, 32813, 33309, 23422, NaN
1471402872.052, 0.0183820091187954, 0.0472629964351654, 0.0308390650898218, 32793, 33316, 23443, NaN
1471402873.06, 0.01140280906111, 0.0476200059056282, 0.0293913446366787, 32794, 33309, 23443, NaN
1471402874.06, 0.00407148292288184, 0.0483777672052383, 0.0301072057336569, 32796, 33305, 23434, NaN
1471402875.06, -0.00260764872655272, 0.048238642513752, 0.0303656216710806, 32806, 33311, 23431, NaN
1471402876.06, -0.00751855177804828, 0.0481913350522518, 0.0295028537511826, 32803, 33309, 23446, NaN
1471402877.06, -0.0107617592439055, 0.0481918193399906, 0.0295453742146492, 32792, 33328, 23434, NaN
1471402878.06, -0.011938551440835, 0.0488430745899677, 0.0306440182030201, 32801, 33318, 23428, NaN
1471402879.06, -0.0113304480910301, 0.0487184301018715, 0.0303334407508373, 32806, 33310, 23426, NaN
1471402880.06, -0.00881762243807316, 0.048627320677042, 0.0305646564811468, 32797, 33305, 23447, NaN
1471402881.06, -0.00509848305955529, 0.048553254455328, 0.0312483422458172, 32793, 33314, 23451, NaN
1471402882.06, -0.00068553484743461, 0.0480112917721272, 0.0309077091515064, 32801, 33302, 23441, NaN
1471402883.06, 0.00552105298265815, 0.0489689446985722, 0.0312235169112682, 32800, 33316, 23441, NaN
1471402884.06, 0.0136771453544497, 0.0490686744451523, 0.0313881412148476, 32789, 33302, 23441, NaN
1471402885.06, 0.0236889459192753, 0.0494366101920605, 0.0313963331282139, 32811, 33308, 23431, NaN
1471402886.06, 0.034296665340662, 0.0488309748470783, 0.0307124294340611, 32800, 33319, 23438, NaN
1471402887.06, 0.0453242138028145, 0.0492363385856152, 0.030094426125288, 32796, 33308, 23436, NaN
1471402888.06, 0.0560852661728859, 0.0492130629718304, 0.0305453613400459, 32808, 33316, 23434, NaN
1471402889.06, 0.0666401982307434, 0.0501978099346161, 0.031262569129467, 32804, 33311, 23440, NaN
1471402890.06, 0.0762115716934204, 0.0503451600670815, 0.0320838429033756, 32806, 33309, 23422, NaN
1471402891.06, 0.0848228335380554, 0.0501941367983818, 0.032025683671236, 32811, 33313, 23443, NaN
1471402892.06, 0.0924066007137299, 0.0501311123371124, 0.0325689353048801, 32799, 33307, 23444, NaN
1471402893.06, 0.0984433367848396, 0.0496165491640568, 0.033269640058279, 32801, 33311, 23443, NaN
1471402894.06, 0.103209614753723, 0.049891259521246, 0.0337812677025795, 32794, 33316, 23431, NaN
1471402895.06, 0.105976983904839, 0.0494320653378963, 0.034430842846632, 32811, 33304, 23433, NaN
1471402896.06, 0.107070229947567, 0.0493978708982468, 0.0348151102662086, 32808, 33322, 23426, NaN
1471402897.06, 0.106925472617149, 0.0483645275235176, 0.0345247127115726, 32804, 33313, 23427, NaN
1471402898.06, 0.105332709848881, 0.0483790822327137, 0.0348952375352383, 32804, 33317, 23441, NaN
1471402899.06, 0.102046594023705, 0.0481643788516521, 0.0349189527332783, 32791, 33319, 23454, NaN
1471402900.07, 0.0976534858345985, 0.0471887812018394, 0.0350517220795155, 32794, 33318, 23448, NaN
1471402900.07, 0.0926271826028824, 0.0474183931946754, 0.0350939556956291, 32806, 33319, 23435, NaN
1471402901.078, 0.0871228873729706, 0.0473438426852226, 0.0342997573316097, 32809, 33313, 23425, NaN
1471402902.078, 0.0816080719232559, 0.0464448519051075, 0.0341363251209259, 32806, 33309, 23427, NaN
1471402903.078, 0.075172483921051, 0.0459421239793301, 0.0329395681619644, 32800, 33304, 23439, NaN
1471402904.078, 0.066856861114502, 0.0456645935773849, 0.0324655175209045, 32810, 33308, 23433, NaN
1471402904.078, 0.057572029531002, 0.0456296801567078, 0.0329630188643932, 32794, 33307, 23442, NaN
1471402905.086, 0.0476527586579323, 0.0456259064376354, 0.0331750847399235, 32793, 33297, 23446, NaN
1471402906.086, 0.0362985767424107, 0.0464831180870533, 0.0334520675241947, 32799, 33302, 23438, NaN
1471402907.086, 0.0259751286357641, 0.04651765152812, 0.033032663166523, 32800, 33321, 23421, NaN
1471402908.086, 0.0171719864010811, 0.0465922243893147, 0.0333260297775269, 32796, 33305, 23456, NaN
1471402908.086, 0.00806477386504412, 0.0462886989116669, 0.0327547565102577, 32798, 33301, 23435, NaN
1471402909.092, 0.000167657737620175, 0.0462657250463963, 0.032365832477808, 32801, 33318, 23440, NaN
1471402910.092, -0.0067792390473187, 0.046212624758482, 0.0327318534255028, 32797, 33306, 23433, 16.8921699523926
1471402911.092, -0.0129369208589196, 0.0471306182444096, 0.0329477600753307, 32801, 33308, 23432, NaN
1471402912.092, -0.0199982207268476, 0.0471902452409267, 0.0322653390467167, 32794, 33308, 23434, NaN
1471402912.092, -0.0271019376814365, 0.0475190915167332, 0.0317842662334442, 32807, 33301, 23420, NaN
1471402913.096, -0.0335519276559353, 0.0471630282700062, 0.0317582413554192, 32808, 33310, 23433, NaN
1471402914.096, -0.0377440564334393, 0.0469538792967796, 0.0310596898198128, 32788, 33317, 23429, NaN
1471402915.096, -0.0398980490863323, 0.0463656559586525, 0.0308900009840727, 32801, 33312, 23421, NaN
1471402916.096, -0.0420913994312286, 0.0456210300326347, 0.0307772643864155, 32807, 33307, 23436, NaN
1471402917.096, -0.0431841015815735, 0.0460401214659214, 0.0309216007590294, 32795, 33304, 23443, NaN
1471402918.096, -0.0437226742506027, 0.0460117571055889, 0.0310835111886263, 32787, 33316, 23444, NaN
1471402919.096, -0.0429319813847542, 0.0465464293956757, 0.0312568359076977, 32798, 33311, 23442, NaN
1471402920.096, -0.0405342355370522, 0.0470087863504887, 0.0310968086123466, 32792, 33319, 23446, NaN
1471402921.096, -0.0393230020999908, 0.0464863292872906, 0.0301317628473043, 32797, 33309, 23443, NaN
1471402922.096, -0.038301058113575, 0.0464876182377338, 0.0300404727458954, 32799, 33312, 23449, NaN
1471402923.096, -0.0358074158430099, 0.0463354401290417, 0.030044948682189, 32795, 33324, 23444, NaN
1471402924.096, -0.0328000597655773, 0.0465554669499397, 0.0299595464020967, 32796, 33321, 23429, NaN
1471402925.096, -0.0284525621682405, 0.0474841147661209, 0.0306861959397793, 32796, 33323, 23445, NaN
1471402926.104, -0.0237534567713737, 0.0475197769701481, 0.0310121197253466, 32805, 33314, 23442, NaN
1471402926.104, -0.0195144135504961, 0.0484594665467739, 0.0312382243573666, 32812, 33308, 23415, NaN
1471402927.112, -0.0147819072008133, 0.0487818047404289, 0.0315496884286404, 32803, 33308, 23443, NaN
1471402928.112, -0.0109432376921177, 0.0492858923971653, 0.0316031351685524, 32794, 33307, 23444, NaN
1471402929.112, -0.00771487597376108, 0.0487218536436558, 0.0314583368599415, 32806, 33310, 23428, NaN
1471402930.112, -0.00423879595473409, 0.0487343035638332, 0.0312145669013262, 32801, 33306, 23430, NaN
1471402930.112, 1.88278104218398e-08, 0.0492893345654011, 0.0309947319328785, 32800, 33307, 23436, NaN
1471402931.118, 0.00456628948450089, 0.0495796762406826, 0.0303160063922405, 32787, 33306, 23443, NaN
1471402932.118, 0.00808236841112375, 0.0499758645892143, 0.030391838401556, 32812, 33318, 23437, NaN
1471402933.118, 0.0101051805540919, 0.0505097918212414, 0.0299912039190531, 32793, 33305, 23429, NaN
1471402934.118, 0.0119345290586352, 0.050093948841095, 0.0306300986558199, 32801, 33322, 23432, NaN
1471402935.118, 0.0134045723825693, 0.0501291304826736, 0.0313048362731934, 32794, 33303, 23437, NaN
1471402936.118, 0.0141469333320856, 0.050482977181673, 0.0314587987959385, 32798, 33312, 23439, NaN
1471402937.118, 0.013085744343698, 0.0503875240683556, 0.0324194505810738, 32802, 33318, 23420, NaN
1471402938.118, 0.0107916286215186, 0.0504079945385456, 0.0319601148366928, 32791, 33319, 23437, NaN
1471402939.118, 0.0086309527978301, 0.0497987195849419, 0.0322851315140724, 32809, 33312, 23434, NaN
1471402940.118, 0.0069751818664372, 0.0496306195855141, 0.0324347130954266, 32805, 33303, 23433, NaN
1471402941.118, 0.00483457557857037, 0.0496146753430367, 0.0323985628783703, 32797, 33316, 23438, NaN
1471402942.118, 0.00268583139404655, 0.0502857863903046, 0.0325265936553478, 32799, 33312, 23430, NaN
1471402943.118, 0.00145411549601704, 0.0499722808599472, 0.0319431386888027, 32810, 33301, 23426, NaN
1471402944.118, 0.000731256615836173, 0.0497081391513348, 0.0314389988780022, 32805, 33317, 23436, NaN
1471402945.118, -5.62137101951521e-05, 0.0492228418588638, 0.0315835103392601, 32807, 33307, 23442, NaN
1471402946.118, 0.000126570186694153, 0.0486834160983562, 0.0310979504138231, 32805, 33328, 23435, NaN
1471402947.118, -0.000315534445689991, 0.0486947074532509, 0.0311384778469801, 32806, 33303, 23445, NaN
1471402948.118, -0.00121051340829581, 0.0483012311160564, 0.0314104780554771, 32793, 33321, 23437, NaN
1471402949.118, -0.00179545534774661, 0.0479842312633991, 0.0317868068814278, 32802, 33316, 23429, NaN
1471402950.118, -0.00194238359108567, 0.0490703396499157, 0.0323935337364674, 32802, 33320, 23434, NaN
1471402951.118, -0.00192867743317038, 0.0482289157807827, 0.0325233973562717, 32805, 33310, 23428, NaN
1471402952.118, -0.00135655980557203, 0.0483897551894188, 0.0325089246034622, 32792, 33306, 23434, NaN
1471402953.126, -0.000583778019063175, 0.0490077696740627, 0.0322108678519726, 32814, 33309, 23442, NaN
1471402953.126, 0.00137821305543184, 0.0485703945159912, 0.0321913845837116, 32806, 33320, 23433, NaN
1471402954.134, 0.00376771506853402, 0.0481142923235893, 0.032731156796217, 32803, 33310, 23437, NaN
1471402955.134, 0.00471276417374611, 0.0485146641731262, 0.0327097699046135, 32792, 33309, 23436, NaN
1471402956.134, 0.00531524932011962, 0.0491815209388733, 0.0325047597289085, 32801, 33313, 23440, NaN
1471402957.134, 0.00572834582999349, 0.0497357808053493, 0.0319887772202492, 32802, 33314, 23426, NaN
1471402957.134, 0.00722747063264251, 0.0495587848126888, 0.0318315140902996, 32809, 33310, 23436, NaN
1471402958.14, 0.00775001104921103, 0.0499443374574184, 0.0315438434481621, 32799, 33308, 23438, NaN
1471402959.14, 0.0084046982228756, 0.0500703565776348, 0.0312951989471912, 32794, 33307, 23429, NaN
1471402960.14, 0.00950932502746582, 0.0498083122074604, 0.0310493968427181, 32805, 33319, 23435, NaN
1471402961.14, 0.0095973014831543, 0.0504735969007015, 0.0311574637889862, 32808, 33313, 23430, NaN
1471402961.14, 0.00798175204545259, 0.0509421490132809, 0.0318096876144409, 32807, 33316, 23443, NaN
1471402962.146, 0.00684570707380772, 0.0508781224489212, 0.0316110476851463, 32792, 33312, 23456, NaN
1471402963.146, 0.00535107776522636, 0.0506387241184711, 0.0312688499689102, 32806, 33319, 23423, NaN
1471402964.146, 0.003822379745543, 0.0510155521333218, 0.0309042762964964, 32815, 33312, 23423, 18.3182621002197
1471402965.146, 0.00245427084155381, 0.0508356876671314, 0.0307792741805315, 32800, 33315, 23442, NaN
1471402966.146, 0.000671557616442442, 0.0516461655497551, 0.0301923360675573, 32806, 33312, 23428, NaN
1471402967.146, -0.000207429795409553, 0.0507385469973087, 0.0298820305615664, 32803, 33304, 23438, NaN
1471402968.146, -0.00149867031723261, 0.0504916310310364, 0.0293467845767736, 32798, 33313, 23432, NaN
1471402969.146, -0.00298804743215442, 0.0500220991671085, 0.0296282451599836, 32802, 33318, 23432, NaN
1471402970.146, -0.00437082722783089, 0.0500663816928864, 0.0292947329580784, 32791, 33310, 23449, NaN
1471402971.146, -0.00626533292233944, 0.0503629222512245, 0.029045520350337, 32802, 33312, 23445, NaN
1471402971.506, -0.00690156454220414, 0.0502015128731728, 0.0292528104037046, 32812, 33300, 23427, NaN
1471402972.506, -0.00872365944087505, 0.0502753369510174, 0.0290925577282906, 32801, 33315, 23428, NaN
1471402973.506, -0.00891248136758804, 0.0500569492578506, 0.0294355601072311, 32804, 33323, 23442, NaN
1471402974.506, -0.00751605071127415, 0.0501573868095875, 0.0295263137668371, 32806, 33315, 23441, NaN
1471402975.506, -0.00603222055360675, 0.0501902513206005, 0.0302476119250059, 32800, 33313, 23430, NaN
1471402976.506, -0.00536777218803763, 0.0508274398744106, 0.0294357426464558, 32791, 33314, 23446, NaN
1471402977.506, -0.00634815962985158, 0.0511981584131718, 0.0287235323339701, 32815, 33314, 23424, NaN
1471402978.516, -0.00667196372523904, 0.0503604784607887, 0.0292048174887896, 32800, 33308, 23439, NaN
1471402979.516, -0.0065129091963172, 0.0499290786683559, 0.0291429869830608, 32801, 33305, 23448, NaN
1471402979.516, -0.00693783070892096, 0.0501356422901154, 0.0290938578546047, 32808, 33319, 23434, NaN
1471402980.524, -0.00735821761190891, 0.0504437014460564, 0.0291789602488279, 32805, 33310, 23436, NaN
1471402981.524, -0.00794081296771765, 0.050313126295805, 0.029146010056138, 32813, 33324, 23430, NaN
1471402982.524, -0.00852028373628855, 0.051001887768507, 0.0293809957802296, 32811, 33301, 23421, NaN
1471402983.524, -0.00909274443984032, 0.0508704259991646, 0.0290014054626226, 32811, 33302, 23429, NaN
1471402983.524, -0.00864672753959894, 0.0513632073998451, 0.0288986023515463, 32781, 33312, 23444, NaN
1471402984.53, -0.00774860288947821, 0.0516617745161057, 0.0291648097336292, 32800, 33321, 23438, NaN
1471402985.53, -0.00542064849287271, 0.0515634752810001, 0.0294246077537537, 32787, 33314, 23450, NaN
1471402986.53, -0.00214118510484695, 0.0523147210478783, 0.0298179816454649, 32810, 33316, 23427, NaN
1471402987.53, 0.000829666561912745, 0.0526034832000732, 0.0293994713574648, 32794, 33318, 23439, NaN
1471402987.53, 0.00242103124037385, 0.0528542175889015, 0.0295404270291328, 32797, 33312, 23441, NaN
1471402988.536, 0.00396153656765819, 0.0533065907657146, 0.0294758435338736, 32800, 33319, 23443, NaN
1471402989.536, 0.00595299061387777, 0.0526104383170605, 0.0299509800970554, 32800, 33314, 23434, NaN
1471402990.536, 0.00756954122334719, 0.0525448322296143, 0.0298772640526295, 32799, 33308, 23425, NaN
1471402991.536, 0.0090378038585186, 0.0520794726908207, 0.0302829761058092, 32800, 33311, 23431, NaN
1471402992.536, 0.00912396237254143, 0.0531688034534454, 0.0300877075642347, 32799, 33305, 23443, NaN
1471402993.536, 0.00800066068768501, 0.0526279993355274, 0.0304517652839422, 32800, 33313, 23431, NaN
1471402994.536, 0.0064525050111115, 0.0523037426173687, 0.029783571138978, 32805, 33301, 23434, NaN
1471402995.536, 0.00541392713785172, 0.0533814802765846, 0.0294577963650227, 32795, 33313, 23428, NaN
1471402996.536, 0.00479040760546923, 0.0538784302771091, 0.0292373821139336, 32807, 33312, 23431, NaN
1471402997.536, 0.00443449662998319, 0.0535718649625778, 0.0296836197376251, 32803, 33317, 23448, NaN
1471402998.536, 0.00495777046307921, 0.053975585848093, 0.0301215127110481, 32812, 33309, 23436, NaN
1471402999.536, 0.00497540505602956, 0.0541596934199333, 0.0300351567566395, 32788, 33307, 23435, NaN
1471403000.536, 0.00488509517163038, 0.0543275848031044, 0.0299844034016132, 32794, 33326, 23436, NaN
1471403001.536, 0.00606054812669754, 0.0547877252101898, 0.0297834258526564, 32818, 33306, 23434, NaN
1471403002.536, 0.00951170921325684, 0.055242583155632, 0.0300013329833746, 32793, 33319, 23441, NaN
1471403003.536, 0.0149521622806787, 0.0555655919015408, 0.0301155298948288, 32807, 33311, 23425, NaN
1471403004.544, 0.0226253904402256, 0.055934514850378, 0.0308119729161263, 32814, 33305, 23428, NaN
1471403005.544, 0.0324165262281895, 0.0559511780738831, 0.0302502512931824, 32782, 33310, 23434, NaN
1471403005.544, 0.0423385053873062, 0.055373128503561, 0.0292188506573439, 32800, 33317, 23431, NaN
1471403006.552, 0.0523608438670635, 0.0541128180921078, 0.0285448078066111, 32797, 33309, 23439, NaN
1471403007.552, 0.0623094215989113, 0.0541999153792858, 0.0280632618814707, 32795, 33322, 23431, NaN
1471403008.552, 0.071582593023777, 0.0540556199848652, 0.0283024739474058, 32792, 33297, 23435, NaN
1471403009.552, 0.0804418846964836, 0.0544004887342453, 0.0284651611000299, 32793, 33317, 23453, NaN
1471403009.552, 0.0890986174345016, 0.0537455752491951, 0.02879498898983, 32790, 33310, 23437, NaN
1471403010.558, 0.0956181511282921, 0.0535321608185768, 0.0285513754934072, 32811, 33295, 23439, NaN
1471403011.558, 0.0928688794374466, 0.0527154393494129, 0.0288838781416416, 32794, 33317, 23433, NaN
1471403012.558, 0.0494318529963493, 0.0530373230576515, 0.0296946875751019, 32814, 33309, 23428, NaN